Вернуться в каталог

STARLINK-35244

АктивенСвязьVLEO
NORAD 65829·PAYLOAD·🇺🇸 United States

Запущен Sep 29, 2025 с Vandenberg Space Force Base

Loading…

Ближайшие Пролёты (ближайшие 24 часа)

TLE

СвежийSource: CelesTrak SupGP

Эпоха: Sep 14, 2026, 20:51 UTC

1 65829C 25221G   26257.86923611  .00015545  00000+0  50009-3 0  2573
2 65829  53.1574 291.2016 0001125  89.8214 356.3064 15.31681106    19

Отслеживайте STARLINK-35244 в реальном времени с AllMySat

Download on the App Store